CAPE
0 0 0 0 0 0 0 0 0 0 0 0 0 0 0 0 0 0 0 0 0 0 0 0 0 0 0 0 0 0 0 0 0 0 0 0 0 0 0 0 0 0 0
0 0 0 0 0 0 0 0 0 0 0 0 0 0 0 0 0 0 0 0 0 0 0 0 0 0 0 0 0 0 0 0 0 0 0 0 0 0 0 0 0 0 0
0 0 0 0 0 0 0 0 0 0 0 0 0 0 0 0 0 0 0 0 0 0 0 0 0 0 0 0 0 0 0 0 0 0 0 0 0 0 0 0 0 0 0
0 0 0 0 0 0 0 0 0 0 0 0 0 0 0 0 0 0 0 0 0 0 0 0 0 0 0 0 0 0 0 0 0 0 0 0 0 0 0 0 0 0 0
0 0 0 0 0 0 0 0 0 0 0 0 0 0 0 0 0 0 0 0 0 0 0 0 0 0 0 0 0 0 0 0 0 0 0 0 0 0 0 0 0 0 0
0 0 0 0 0 0 0 0 0 0 0 0 0 0 0 0 0 0 0 0 0 0 0 0 0 0 0 0 0 0 0 0 0 0 0 0 0 0 0 0 0 0 0
0 0 0 0 0 0 0 0 0 0 0 0 0 0 0 0 0 0 0 0 0 0 0 0 0 0 0 0 0 0 0 0 0 0 0 0 0 0 0 0 0 0 0
0 0 0 0 0 0 0 0 0 0 0 0 0 0 0 0 0 0 0 0 0 0 0 0 0 0 0 0 0 0 0 0 0 0 0 0 0 0 0 0 0 0 0
0 0 0 0 0 0 0 0 0 0 0 0 0 0 0 0 0 0 0 0 0 0 0 0 0 0 0 0 0 0 0 0 0 0 0 0 0 0 0 0 0 0 0
0 0 0 0 0 0 0 0 0 0 0 0 0 0 0 0 0 0 0 0 0 0 0 0 0 0 0 0 0 0 0 0 0 0 0 0 0 0 0 0 0 0 0
0 0 0 0 0 0 0 0 0 0 0 0 0 0 0 0 0 1 0 0 0 0 0 0 0 0 0 0 0 0 0 0 0 0 0 0 0 0 0 0 0 0 0
0 0 0 0 0 0 0 0 0 0 0 0 0 0 0 0 0 1 1 0 0 0 0 0 0 0 0 0 0 0 0 0 0 0 0 0 0 0 0 0 0 0 0
0 0 0 0 0 0 0 0 0 0 0 0 0 0 0 0 0 0 1 0 0 0 0 0 0 0 0 0 0 0 0 0 0 0 0 0 0 0 0 0 0 0 0
0 0 0 0 0 0 0 0 0 0 0 0 0 0 0 0 0 0 0 1 0 0 0 0 0 0 0 0 0 0 0 0 0 0 0 0 0 0 0 0 0 0 0
0 0 0 0 0 0 0 0 0 0 0 0 0 0 0 0 0 0 0 0 0 0 0 0 0 0 0 0 0 0 0 0 0 0 0 0 0 0 0 0 0 0 0
0 0 0 0 0 0 0 0 0 0 0 0 0 0 0 0 0 0 5 2 0 0 0 0 0 0 0 0 0 0 0 0 0 0 0 0 0 0 0 0 0 0 0
0 0 0 0 0 0 0 0 0 0 0 0 0 2 0 0 0 0 5 4 2 1 0 0 0 0 0 0 0 0 0 0 0 0 0 0 0 0 0 0 0 0 0
0 0 0 1 0 0 0 0 0 1 0 1 1 0 2 1 0 0 1 4 0 0 0 0 0 0 0 0 0 0 0 0 0 0 0 0 0 0 0 0 0 0 0
0 0 1 1 1 1 1 1 1 1 1 0 0 0 0 1 2 3 4 0 0 0 0 0 0 0 0 0 0 0 0 0 0 0 0 0 0 0 0 0 0 0 0
0 0 0 0 0 0 0 0 0 0 0 0 0 0 0 0 0 0 0 0 0 0 0 0 0 0 0 0 0 0 0 0 0 0 0 0 0 0 0 0 0 0 0
0 0 0 0 0 0 0 0 0 0 0 0 0 0 0 0 0 0 0 0 0 0 0 0 0 0 0 0 0 0 0 0 0 0 0 0 0 0 0 0 0 0 0
0 0 0 0 0 0 0 0 0 0 0 0 0 0 0 0 0 0 0 0 0 0 0 0 0 0 0 0 0 0 0 0 0 0 0 0 0 0 0 0 0 0 0
0 0 0 0 0 0 0 0 0 0 0 0 0 0 0 0 0 0 0 0 0 0 0 0 0 0 0 0 0 0 0 0 0 0 0 0 0 0 0 0 0 0 0
0 0 0 0 0 0 0 0 0 0 0 0 0 0 0 0 0 0 0 0 0 0 0 0 0 0 0 0 0 0 0 0 0 0 0 0 0 0 0 0 0 0 0
0 0 0 0 0 0 0 0 0 0 0 0 0 0 0 0 0 0 0 0 0 0 0 0 0 0 0 0 0 0 0 0 0 0 0 0 0 0 0 0 0 0 0
0 0 0 0 0 0 0 0 0 0 0 0 0 0 0 0 0 0 0 0 0 0 0 0 0 0 0 0 0 0 0 0 0 0 0 0 0 0 0 0 0 0 0
CIN
-0 -0 -0 -0 -0 -0 -0 -0 -0 -0 -0 -0 -0 -0 -0 -0 -0 -0 -0 -0 -0 -0 -0 -0 -0 -0 -0 -0 -0 -0 -0 -0 -0 -0 -0 -0 -0 -0 -0 -0 -0 -0 -0
-0 -0 -0 -0 -0 -0 -0 -0 -0 -0 -0 -0 -0 -0 -0 -0 -0 -0 -0 -0 -0 -0 -0 -0 -0 -0 -0 -0 -0 -0 -0 -0 -0 -0 -0 -0 -0 -0 -0 -0 -0 -0 -0
-0 -0 -0 -0 -0 -0 -0 -0 -0 -0 -0 -0 -0 -0 -0 -0 -0 -0 -0 -0 -0 -0 -0 -0 -0 -0 -0 -0 -0 -0 -0 -0 -0 -0 -0 -0 -0 -0 -0 -0 -0 -0 -0
-0 -0 -0 -0 -0 -0 -0 -0 -0 -0 -0 -0 -0 -0 -0 -0 -0 -0 -0 -0 -0 -0 -0 -0 -0 -0 -0 -0 -0 -0 -0 -0 -0 -0 -0 -0 -0 -0 -0 -0 -0 -0 -0
-0 -0 -0 -0 -0 -0 -0 -0 -0 -0 -0 -0 -0 -0 -0 -0 -0 -0 -0 -0 -0 -0 -0 -0 -0 -0 -0 -0 -0 -0 -0 -0 -0 -0 -0 -0 -0 -0 -0 -0 -0 -0 -0
-0 -0 -0 -0 -0 -0 -0 -0 -0 -0 -0 -0 -0 -0 -0 -0 -0 -0 -0 -0 -0 -0 -0 -0 -0 -0 -0 -0 -0 -0 -0 -0 -0 -0 -0 -0 -0 -0 -0 -0 -0 -0 -0
-0 -0 -0 -0 -0 -0 -0 -0 -0 -0 -0 -0 -0 -0 -0 -0 -0 -0 -0 -0 -0 -0 -0 -0 -0 -0 -0 -0 -0 -0 -0 -0 -0 -0 -0 -0 -0 -0 -0 -0 -0 -0 -0
-0 -0 -0 -0 -0 -0 -0 -0 -0 -0 -0 -0 -0 -0 -0 -0 -0 -0 -0 -0 -0 -0 -0 -0 -0 -0 -0 -0 -0 -0 -0 -0 -0 -0 -0 -0 -0 -0 -0 -0 -0 -0 -0
-0 -0 -0 -0 -0 -0 -0 -0 -0 -0 -0 -0 -0 -0 -0 -0 -0 -0 -0 -0 -0 -0 -0 -0 -0 -0 -0 -0 -0 -0 -0 -0 -0 -0 -0 -0 -0 -0 -0 -0 -0 -0 -0
-0 -0 -0 -0 -0 -0 -0 -0 -0 -0 -0 -0 -0 -0 -0 -0 -0 -0 -0 -0 -0 -0 -0 -0 -0 -0 -0 -0 -0 -0 -0 -0 -0 -0 -0 -0 -0 -0 -0 -0 -0 -0 -0
-0 -0 -0 -0 -0 -0 -0 -0 -0 -0 -0 -0 -0 -0 -0 -0 -0 -0 -0 -0 -0 -0 -0 -0 -0 -0 -0 -0 -0 -0 -0 -0 -0 -0 -0 -0 -0 -0 -0 -0 -0 -0 -0
-0 -0 -0 -0 -0 -0 -0 -0 -0 -0 -0 -0 -0 -0 -0 -0 -0 -0 -0 -0 -0 -0 -0 -0 -0 -0 -0 -0 -0 -0 -0 -0 -0 -0 -0 -0 -0 -0 -0 -0 -0 -0 -0
-0 -0 -0 -0 -0 -0 -0 -0 -0 -0 -0 -0 -0 -0 -0 -0 -0 -0 -0 -0 -0 -0 -0 -0 -0 -0 -1 -0 -0 -0 -0 -0 -0 -0 -0 -0 -0 -0 -0 -0 -0 -0 -0
-0 -0 -0 -0 -0 -0 -0 -0 -0 -0 -0 -0 -0 -0 -0 -0 -0 -0 -0 -1 -0 -0 -0 -0 -0 -0 -0 -0 -0 -0 -0 -0 -0 -0 -0 -0 -0 -0 -0 -0 -0 -0 -0
-0 -0 -0 -0 -0 -0 -0 -0 -0 -0 -0 -0 -0 -0 -0 -0 -0 -0 -0 -0 -0 -0 -0 -0 -0 -0 -0 -0 -0 -0 -0 -0 -0 -0 -0 -0 -0 -0 -0 -0 -0 -0 -0
-0 -0 -0 -0 -0 -0 -0 -0 -0 -0 -0 -0 -0 -0 -0 -0 -0 -0 -0 -0 -0 -0 -0 -0 -0 -0 -0 -0 -0 -0 -0 -0 -0 -0 -0 -0 -0 -0 -0 -0 -0 -0 -0
-0 -0 -0 -0 -0 -0 -0 -0 -0 -0 -0 -0 -0 -0 -0 -0 -0 -0 -0 -0 -1 -1 -0 -0 -0 -0 -0 -0 -0 -0 -0 -0 -0 -0 -0 -0 -0 -0 -0 -0 -0 -0 -0
-0 -0 -0 -0 -0 -0 -0 -0 -0 -0 -0 -0 -0 -0 -0 -0 -0 -0 -0 -0 -0 -0 -0 -0 -0 -0 -0 -0 -0 -0 -0 -0 -0 -0 -0 -0 -0 -0 -0 -0 -0 -0 -0
-0 -0 -0 -0 -0 -0 -0 -0 -0 -0 -0 -0 -0 -0 -0 -0 -0 -0 -0 -0 -0 -0 -0 -0 -0 -0 -0 -0 -0 -0 -0 -0 -0 -0 -0 -0 -0 -0 -0 -0 -0 -0 -0
-0 -0 -0 -0 -0 -0 -0 -0 -0 -0 -0 -0 -0 -0 -0 -0 -0 -0 -1 -0 -0 -0 -0 -0 -0 -0 -0 -0 -0 -0 -0 -0 -0 -0 -0 -0 -0 -0 -0 -0 -0 -0 -0
-0 -0 -0 -0 -0 -0 -0 -0 -0 -0 -0 -0 -0 -0 -0 -0 -0 -0 -0 -0 -0 -0 -0 -0 -0 -0 -0 -0 -0 -0 -0 -0 -0 -0 -0 -0 -0 -0 -0 -0 -0 -0 -0
-0 -0 -0 -0 -0 -0 -0 -0 -0 -0 -0 -0 -0 -0 -0 -0 -0 -0 -0 -0 -0 -0 -0 -0 -0 -0 -0 -0 -0 -0 -0 -0 -0 -0 -0 -0 -0 -0 -0 -0 -0 -0 -0
-0 -0 -0 -0 -0 -0 -0 -0 -0 -0 -0 -0 -0 -0 -0 -0 -0 -0 -0 -0 -0 -0 -0 -0 -0 -0 -0 -0 -0 -0 -0 -0 -0 -0 -0 -0 -0 -0 -0 -0 -0 -0 -0
-0 -0 -0 -0 -0 -0 -0 -0 -0 -0 -0 -0 -0 -0 -0 -0 -0 -0 -0 -0 -0 -0 -0 -0 -0 -0 -0 -0 -0 -0 -0 -0 -0 -0 -0 -0 -0 -0 -0 -0 -0 -0 -0
-0 -0 -0 -0 -0 -0 -0 -0 -0 -0 -0 -0 -0 -0 -0 -0 -0 -0 -0 -0 -0 -0 -0 -0 -0 -0 -0 -0 -0 -0 -0 -0 -0 -0 -0 -0 -0 -0 -0 -0 -0 -0 -0
-0 -0 -0 -0 -0 -0 -0 -0 -0 -0 -0 -0 -0 -0 -0 -0 -0 -0 -0 -0 -0 -0 -0 -0 -0 -0 -0 -0 -0 -0 -0 -0 -0 -0 -0 -0 -0 -0 -0 -0 -0 -0 -0
Wind_Speed
24 24 24 23 23 22 23 22 20 19 18 18 18 18 18 19 19 19 20 20 21 21 21 21 22 21 21 21 21 22 22 23 26 25 23 20 21 22 23 24 24 25 24
25 24 24 23 23 23 23 22 20 20 19 19 19 19 20 20 20 21 21 21 22 22 21 21 21 20 20 20 21 22 22 22 24 26 21 21 22 22 24 24 25 25 26
25 24 24 23 23 23 22 21 21 21 21 21 21 21 21 21 21 21 21 21 21 20 20 19 19 18 19 20 21 21 21 21 22 25 26 23 24 24 27 26 27 27 27
25 24 25 23 23 23 23 22 22 22 23 23 23 23 22 22 21 20 20 20 20 19 18 18 18 18 19 19 20 20 20 20 21 23 23 24 25 26 27 30 31 29 31
28 27 26 25 24 24 24 24 25 25 26 25 25 24 23 22 21 21 20 20 19 19 19 19 18 19 19 19 19 19 20 23 23 24 24 25 27 29 30 29 31 32 31
31 30 29 28 26 26 27 27 27 26 26 26 26 25 24 24 22 21 20 20 20 20 19 18 18 18 18 17 19 21 22 23 24 24 25 27 29 29 29 30 31 32 33
34 33 32 31 31 30 30 29 29 28 27 27 27 26 26 25 23 21 21 22 21 20 19 18 18 17 16 17 18 20 22 23 24 24 26 27 29 29 28 29 31 32 34
38 37 35 34 34 34 33 33 32 31 31 31 29 28 28 27 24 23 22 22 21 20 20 19 18 17 17 17 19 20 22 23 23 24 26 26 26 26 27 28 29 30 30
41 39 35 33 33 33 34 34 34 33 32 32 30 29 29 28 25 23 22 22 22 21 20 20 19 19 18 19 20 21 22 22 20 22 22 22 23 24 25 27 28 30 31
43 41 39 36 35 35 35 35 34 33 33 32 31 29 29 28 25 23 22 22 24 24 23 22 20 21 19 19 22 22 22 20 20 20 20 20 22 23 25 24 24 27 29
41 41 40 37 36 34 35 34 33 33 33 33 32 30 29 27 25 23 23 24 26 26 26 25 22 20 19 21 22 22 22 18 20 21 20 20 20 20 21 22 23 24 26
46 43 39 37 35 33 33 32 32 32 33 32 31 31 29 27 26 25 25 25 25 27 27 24 22 19 19 20 20 21 19 19 21 22 22 22 21 21 21 22 23 23 24
48 47 44 38 34 32 33 33 32 32 32 31 29 31 31 30 29 27 27 26 25 26 26 24 21 18 18 19 20 20 19 22 24 25 24 23 21 21 21 23 23 24 26
48 47 44 44 40 35 33 32 32 32 32 33 32 32 32 30 30 29 29 28 26 26 24 23 20 17 17 19 19 20 22 23 24 24 24 22 21 22 23 22 25 26 28
44 44 44 43 41 39 36 35 35 34 33 34 34 33 32 34 31 29 28 27 26 23 22 20 20 19 20 21 21 21 22 23 23 24 23 23 22 22 23 23 24 26 29
45 44 42 40 42 41 40 39 37 37 35 34 33 33 33 32 28 25 23 22 21 20 20 21 21 22 22 22 22 22 22 22 22 22 22 22 23 23 24 24 25 27 31
46 44 41 40 39 39 39 39 41 36 33 31 30 28 28 28 25 23 22 20 19 18 22 22 23 22 23 22 21 21 21 21 20 21 22 22 23 24 25 26 28 29 31
45 43 42 40 39 38 37 37 36 35 35 33 29 29 28 26 24 21 20 19 21 21 22 23 23 22 21 20 20 20 20 20 20 20 21 22 22 24 26 27 28 29 30
44 41 39 38 38 37 36 35 34 33 32 30 28 26 24 23 22 21 20 22 22 23 23 21 20 19 19 19 19 19 20 20 21 21 22 22 23 25 27 28 28 28 29
41 39 38 37 36 36 35 34 33 32 31 29 28 27 24 23 22 21 21 22 21 20 20 20 19 19 19 18 19 20 21 22 22 22 23 24 25 26 28 28 27 28 29
39 38 36 35 35 34 34 33 32 33 32 31 28 25 23 23 23 22 21 21 20 20 19 19 19 19 19 20 20 21 22 23 23 24 25 26 26 27 27 27 27 27 28
38 37 35 35 33 33 33 32 32 31 30 29 27 24 21 22 22 22 22 22 21 21 20 18 18 19 20 21 21 22 23 24 25 26 26 27 27 26 26 26 27 28 28
36 36 35 34 33 32 32 31 30 29 28 26 25 24 23 23 22 22 21 21 20 19 18 19 20 22 22 23 23 24 25 26 26 25 27 27 26 26 26 27 27 28 28
35 35 34 33 32 31 30 28 27 26 25 24 22 21 21 20 20 19 19 18 18 19 20 22 23 24 24 24 25 26 26 26 26 25 24 26 26 26 26 27 27 27 27
33 32 32 31 30 29 28 26 25 23 22 21 20 19 19 19 19 19 19 19 21 23 24 25 25 25 25 26 27 26 26 26 25 24 24 25 26 26 26 26 26 26 26
31 31 30 28 27 26 26 25 24 23 21 21 20 20 20 20 20 20 21 22 24 25 26 25 25 25 26 26 27 27 27 26 25 23 23 24 25 25 25 25 26 26 26
Wind_Direction
304 301 298 296 295 295 294 293 291 291 289 289 289 290 292 294 297 300 304 306 308 311 314 315 317 322 324 327 329 329 328 326 318 324 330 332 331 331 332 333 333 331 331
306 302 299 298 296 294 291 289 287 285 286 286 287 289 290 292 295 297 300 304 305 307 311 315 317 322 324 327 328 328 329 330 324 319 327 327 326 329 329 329 330 330 328
306 303 299 295 293 292 290 289 286 285 285 285 286 286 288 290 293 296 299 302 304 306 309 312 316 319 322 325 327 328 330 331 329 322 321 326 325 326 326 327 327 327 326
304 301 297 293 292 292 290 287 284 282 281 282 283 284 286 288 290 293 296 298 301 304 308 312 314 317 319 323 325 326 329 328 327 324 322 320 321 323 323 322 321 323 321
298 294 291 290 288 287 285 283 281 281 281 281 281 282 283 284 287 289 292 294 297 301 305 309 313 318 323 325 325 326 326 323 324 322 320 319 318 318 318 320 319 320 320
296 292 291 288 284 282 283 282 280 278 278 279 279 279 280 283 284 285 288 291 293 296 299 305 311 316 321 326 328 330 328 323 321 321 320 317 317 319 320 319 319 319 316
297 292 290 286 282 280 280 280 278 276 277 277 277 277 278 280 281 281 284 289 291 293 296 300 306 312 317 322 325 327 327 327 325 322 318 317 316 318 320 319 318 317 315
298 295 292 288 284 283 280 278 277 276 275 276 276 277 280 281 281 279 281 287 289 292 294 297 301 305 307 312 316 319 321 324 325 325 322 321 321 321 321 321 322 321 321
302 297 294 289 285 282 279 278 277 275 274 274 276 277 278 280 279 276 278 285 288 290 294 296 298 301 303 306 310 313 318 322 329 329 329 329 327 325 324 323 321 321 320
304 302 297 293 288 285 283 281 279 277 275 274 274 275 276 277 275 272 275 283 285 288 292 294 296 299 300 303 307 309 311 315 319 326 329 329 326 326 327 328 326 323 323
308 304 301 296 291 288 285 282 279 277 276 275 274 274 275 274 272 269 271 280 283 285 288 291 294 294 297 302 307 309 311 317 316 320 322 325 325 326 327 329 329 327 325
304 303 302 299 295 291 286 283 280 278 276 275 275 275 274 272 272 269 271 280 283 285 286 289 292 290 296 301 307 310 314 317 315 314 316 317 319 321 324 325 326 326 326
302 299 298 298 298 294 288 285 282 278 277 275 273 274 275 275 275 272 272 277 283 286 287 289 290 286 292 299 304 307 311 312 310 310 311 313 317 320 322 323 324 325 324
306 301 299 295 293 294 290 286 283 280 279 279 277 276 277 276 275 274 274 276 280 283 287 289 289 286 292 298 301 303 306 307 307 309 310 313 317 317 318 320 321 323 323
310 305 301 297 294 291 287 285 284 283 281 281 280 279 276 276 274 271 269 272 275 280 284 285 287 287 292 296 297 300 303 305 305 308 309 311 313 315 316 319 320 322 321
309 306 303 300 295 292 290 288 285 283 283 280 281 280 281 282 278 270 268 268 270 273 282 282 283 287 289 292 294 297 299 301 304 306 308 310 311 313 315 317 320 319 319
307 306 304 301 298 294 292 289 287 287 287 283 282 280 281 280 278 270 265 265 266 268 280 281 283 284 288 291 293 295 297 300 304 305 307 308 310 312 314 315 317 318 318
307 305 302 300 298 296 294 291 289 288 286 284 282 282 280 282 277 268 265 264 270 269 277 281 281 285 287 289 293 295 299 302 304 305 306 307 310 311 313 314 316 317 318
309 306 304 302 298 296 295 293 291 290 288 286 285 283 282 281 277 271 262 269 271 273 278 280 281 285 289 291 293 295 299 300 302 304 305 307 309 310 311 314 316 317 318
313 310 306 303 301 298 296 294 292 290 289 285 284 282 282 283 278 274 270 273 276 278 276 280 284 288 289 291 293 296 298 300 301 302 305 307 308 309 311 313 314 315 316
316 314 311 308 304 301 299 295 294 292 289 287 286 283 278 278 278 278 277 278 279 280 283 286 288 289 291 293 295 296 298 299 301 303 305 306 308 309 311 313 314 314 314
318 316 314 310 308 304 301 300 297 294 292 290 289 286 279 282 281 279 280 281 283 286 288 289 290 291 293 294 295 296 297 299 301 303 304 306 308 309 311 312 312 313 314
320 317 315 313 310 308 305 303 300 298 296 294 291 287 286 283 282 282 282 284 286 288 290 291 293 295 297 297 298 297 298 300 302 304 305 306 307 308 310 310 311 311 312
322 319 317 315 313 311 309 307 306 304 301 298 295 291 286 286 286 286 287 288 289 291 293 294 296 297 298 298 298 298 300 302 304 305 305 306 307 308 309 310 310 311 312
327 325 323 320 317 314 312 310 308 307 305 302 300 297 294 292 290 290 291 291 292 294 296 298 300 300 299 298 299 300 302 303 303 304 305 304 305 307 308 309 310 310 311
328 326 326 326 324 320 316 312 310 308 306 305 303 300 298 295 294 295 295 296 297 299 300 302 303 302 302 302 302 302 302 303 302 302 304 305 305 306 307 307 308 309 310